Showing default

SDX01, 62459

Orbit data source: Space-Track

SDX01, 62459 is a payload satellite owned by ISRO (IN) in LEO that was launched on Mon, 30 Dec 2024 UTC via a PSLV launch vehicle from the Sirharikota (SRI). Payloads include a variety of satellites, spacecraft, and rockets equipped with specific instruments for various scientific and technological missions. These include communications satellites like Starlink; space stations such as the ISS; scientific satellites like the Hubble; Earth observation satellites from companies like Planet Labs, Umbra, and HawkEye 360; GPS; miniature CubeSats for education and research; and military/defense satellites.

Loading next visibility...
SDX01 details
Identifier
62459, 2024-253A
Orbit
LEO
Last TLE update11 hours ago
Origin
Flag of INISRO (IN / IND)
ManufacturerISRO
MissionOperational Civil Technology
Bus & MotorSPADEX, Unknown motor
Mass220 kg wet, ~180 kg dry
Launch date (UTC)
2024-12-30 (1 month ago)
Launch vehicle
PSLV
Launch site
Sirharikota (SRI)
Object type
Payload
Rocket body
Debris
Shape & HBRBox + 2 Pan, 2.5 m
Radar Cross Section0.901 m², Large (>1 m²)

Expand to show TLE details & history

TLE from 11 hours ago
0 SDX01
1 62459U 24253A   25035.80085490  .00026799  00000-0  83370-3 0  9998
2 62459  54.9974  96.6435 0012842  29.0322 331.1415 15.33108860  5530
Epoch: 2025-02-04T19:13Z
Definitive object data (Epoch: 2025-02-04T19:13:13.863Z)
Latitude-0.00004°
Longitude33.13477°
Altitude459.944 km
Speed7.642 km/s
True Right ascension06h 26m 34s
True Declination0° 00' 00"
Sunlit
Object was in full shadow at TLE epoch
Visualization TLE readout
Latitude-55.10539°
Longitude-55.67499°
Altitude490.046 km
Speed7.617 km/s
Apparent Right ascension21h 52m 49s
Apparent Declination-53° 12' 49"
Sunlit
Object is in daylight
Visualization observer readout
Local Sidereal Time07:49:28
Azimuth227.193° WSW
Elevation-65.265°
Doppler factor1
Orbital elements
Apogee altitude475.296 km
Perigee altitude457.716 km
Semi-major axis6,844.643 km
Eccentricity0.0012842
Inclination54.9974°
RAAN96.6435°
Arg. of periapsis29.0322°
True anomaly331.07037°
Mean anomaly331.1415°
Eccentric anomaly331.10595°
Mean motion3.83281 °/min
BSTAR0.0008337
Orbital period93.93 mins
Loading maneuver chart data...
Loading historical data...
Loading historical data...
Loading historical data...
Loading historical data...
Loading historical data...
Loading historical data...
Loading historical data...
Other satellites on launch #253 in the year 2024 (2024-12-30 UTC)

SDX01 Visibility forecast

Observer location: undefined°, undefined

Span
Click to sort rows by Start time (UTC) header in descending order
Start Az.
Max El. time (UTC)
Max El. Az.
Max El.
End time (UTC)
End Az.
6 mins2025-02-05 06:20:24.405Z212.198° SW2025-02-05 06:23:24.405Z116.057° SE40.912°2025-02-05 06:26:24.405Z54.151° ENE
5 mins2025-02-05 12:55:24.405Z342.167° N2025-02-05 12:57:24.405Z33.658° NE27.866°2025-02-05 13:00:24.405Z97.779° ESE
4 mins2025-02-05 14:33:24.405Z271.025° WNW2025-02-05 14:35:24.405Z216.29° SW24.121°2025-02-05 14:37:24.405Z177.614° S
|